Temp_Advection
nan nan nan nan nan nan nan nan nan nan nan nan nan nan nan nan nan nan nan nan nan nan nan nan nan nan nan nan nan nan nan nan nan nan nan nan nan nan nan nan nan nan nan nan nan nan nan nan nan nan nan nan nan nan nan nan nan nan nan nan nan nan nan nan nan nan nan nan nan
nan 1 1 1 1 1 2 2 1 -0 -1 -0 1 1 2 2 1 -0 -1 -1 -0 0 1 0 -0 -0 -0 1 1 1 1 0 0 1 0 0 0 0 0 0 0 0 0 0 0 -0 -0 -1 -0 -0 -0 -0 -0 -0 -0 -0 -0 -0 -0 -0 -0 -0 -0 -0 -0 -0 -0 -0 nan
nan 1 1 1 1 1 1 1 -0 -1 -1 0 1 2 2 2 1 1 0 0 0 -0 -0 0 0 -0 0 1 1 1 1 0 0 0 0 -0 -0 -0 0 -0 -0 -0 0 0 -0 -1 -1 -0 0 0 -0 -0 -0 -0 -0 -0 -0 -0 -0 -0 -0 -0 -0 -0 -0 0 0 0 nan
nan 0 0 0 0 0 1 -0 -1 -1 -0 1 2 2 2 2 1 1 1 0 -0 -1 -1 -0 0 1 1 2 2 1 0 -0 0 -0 -1 -1 -0 0 0 -0 -0 -0 -0 -1 -1 -1 -0 0 0 -0 -0 -0 -0 -0 -0 -0 -0 -0 -0 -0 0 0 0 0 0 0 0 0 nan
nan -0 -0 -0 0 0 0 -0 0 0 1 2 2 2 1 0 0 0 0 -0 -0 -1 -1 -1 0 1 2 2 1 0 -1 -0 0 0 -1 -1 0 1 1 -0 -0 -0 -0 -1 -0 0 0 0 -0 -1 -0 -0 -0 -0 -0 0 0 0 0 0 0 0 0 0 0 0 0 -0 nan
nan -0 0 0 0 0 0 0 1 1 2 2 1 0 -0 -0 -0 -0 -0 -1 -0 -0 -0 -0 0 1 2 2 1 -1 -1 -0 1 1 -0 -1 0 2 2 0 0 0 -0 -0 0 -0 -0 -0 -0 -0 -0 -0 0 0 0 0 0 0 0 0 0 0 0 0 0 0 0 0 nan
nan 0 0 0 0 0 0 0 0 1 1 1 -0 -1 -1 0 1 0 0 -0 -0 0 0 0 1 1 1 1 -0 -1 -2 -0 2 2 0 -1 1 3 2 1 -0 -0 -0 -0 -0 -1 -0 -0 -0 0 0 0 0 0 0 0 0 0 0 0 0 0 0 0 0 -0 -0 0 nan
nan 0 0 0 0 0 1 0 -0 -0 -1 -1 -1 -1 0 1 1 0 0 -0 0 0 0 -0 -0 -0 -0 -0 -1 -1 -1 1 3 2 0 -0 1 3 2 0 -1 -1 -0 -1 -1 -0 -0 0 0 1 1 1 0 0 0 0 0 0 0 0 0 0 0 0 -0 -0 0 0 nan
nan 0 0 0 1 1 0 -0 -0 -1 -1 -2 -1 0 1 1 0 0 -0 -0 -0 -0 -0 -1 -1 -1 -1 -1 -1 -0 1 3 3 1 -0 0 2 2 1 -1 -1 -1 -1 -1 -0 0 0 1 1 1 1 0 0 0 0 0 0 0 0 -0 0 0 0 0 0 0 0 0 nan
nan -0 -0 -0 0 0 0 -0 -0 -1 -1 -1 -0 1 1 1 0 0 -0 -0 -0 -0 -0 -1 -0 -0 -0 0 0 1 2 2 1 0 -0 1 2 1 0 -1 -1 -1 -1 -1 0 1 1 1 2 1 0 0 0 0 0 0 0 0 -0 0 0 0 0 0 0 0 0 0 nan
nan -0 -0 -0 -0 -0 -0 -0 -0 -1 -1 0 1 1 1 1 0 -0 -0 -1 -1 -0 -0 0 0 0 0 0 1 1 1 1 0 -0 0 1 1 1 -0 -1 -1 -1 -1 -0 0 1 2 2 1 0 0 0 0 0 0 0 0 0 0 0 0 0 -0 0 0 0 0 0 nan
nan -0 -0 0 -0 -0 -0 -0 -0 -0 0 1 1 1 1 0 -0 -0 -0 -0 -0 0 1 1 1 1 1 1 0 0 0 -0 -0 -0 0 1 0 -0 -1 -2 -1 -1 -0 -0 0 2 2 1 -0 -0 0 0 0 0 0 0 0 0 0 0 0 0 -0 0 0 0 0 -0 nan
nan -0 0 0 0 0 0 0 0 1 1 1 1 0 0 -0 -0 -0 0 0 0 1 1 1 1 1 1 1 0 0 0 0 0 0 0 0 -0 -1 -2 -2 -1 -0 -0 0 1 2 1 -0 -0 -0 -0 0 0 0 0 0 0 0 0 0 0 0 -0 -0 -0 -0 -0 -0 nan
nan 0 0 0 0 0 0 1 1 1 1 0 0 0 0 0 0 0 0 1 1 1 1 0 0 1 0 0 1 1 1 1 1 1 1 0 -0 -1 -1 -1 0 1 1 1 2 2 0 -1 -1 -0 -0 -0 0 0 0 0 1 1 1 0 -0 -0 -0 -0 -0 -0 -0 -0 nan
nan 1 1 0 0 -0 0 0 0 0 0 0 0 0 0 0 0 1 1 1 1 0 0 0 0 0 0 0 1 1 1 1 1 1 0 -0 -1 -1 -0 1 2 2 2 2 2 0 -1 -1 -1 -0 -0 0 0 0 0 1 1 1 0 -0 -0 -0 -1 -1 -1 -0 -0 -0 nan
nan 1 1 0 0 0 0 0 0 -0 -0 -0 0 0 0 0 0 1 1 0 0 0 0 0 -0 0 0 0 0 0 0 0 0 -0 -0 -1 -1 -0 1 2 2 1 1 0 -0 -1 -1 -1 -0 -0 0 0 0 0 0 1 1 1 -0 -0 -1 -1 -1 -1 -1 -0 -0 -0 nan
nan 0 0 0 0 0 0 0 0 0 -0 0 0 0 0 0 0 0 0 0 0 0 0 0 0 -0 -0 -0 -0 -0 0 0 0 -0 -0 -0 0 1 2 2 1 0 -0 -0 -0 -0 -0 -0 -0 0 0 0 0 0 0 1 1 0 -0 -1 -1 -1 -1 -0 -0 -0 -0 -0 nan
nan 0 0 0 0 0 0 0 0 0 0 0 0 0 0 0 -0 -0 0 0 0 0 0 0 0 -0 -0 -0 -0 1 1 1 1 0 0 1 1 2 2 1 -0 -1 -1 -0 0 0 0 0 0 0 0 0 0 0 0 0 0 -0 -1 -1 -1 -1 -0 -0 -0 -0 -0 -0 nan
nan 0 -0 -0 -0 -0 0 0 0 0 0 1 0 0 0 0 -0 -0 -0 0 0 0 0 0 0 0 0 0 1 1 1 1 1 1 1 1 1 1 0 -0 -1 -1 -0 0 0 0 0 0 0 0 0 0 0 -0 -0 -0 -0 -0 -1 -1 -1 -0 -0 -0 -0 -0 -0 -0 nan
nan -0 -0 -0 -0 -0 -0 -0 0 0 0 0 0 0 0 0 -0 -0 0 0 1 1 1 1 1 1 1 1 1 1 1 0 0 0 0 0 0 -0 -0 -1 -1 -0 0 0 1 0 0 0 0 0 -0 -0 -0 -0 -0 -0 -0 -0 -1 -1 -0 -0 -0 -0 -0 -0 -0 -0 nan
nan -0 -0 -0 -0 -0 -0 -0 0 0 0 0 0 0 0 0 0 0 1 1 1 1 1 1 1 1 1 1 1 0 -0 -0 -0 -0 -0 -0 -0 -0 -0 -0 -0 0 0 0 0 0 0 0 -0 -0 -0 0 0 0 -0 -0 -1 -1 -1 -1 -0 -0 -0 -0 -0 -0 -0 0 nan
nan 0 0 0 0 0 0 0 0 1 0 0 0 0 0 0 0 1 1 1 1 1 0 0 0 0 0 0 0 -0 -0 -0 -0 -0 -0 -0 -0 -0 -0 0 0 0 0 0 0 0 0 -0 -0 -0 0 0 0 -0 -0 -1 -1 -1 -1 -1 -0 -0 0 -0 -0 -0 0 0 nan
nan 1 1 1 1 1 1 1 1 1 0 0 0 0 1 1 1 1 1 1 1 0 0 -0 -0 -0 -0 -0 -0 -0 -0 -0 -0 -0 0 0 0 0 0 0 0 -0 -0 0 0 -0 -0 -0 -0 0 0 0 -0 -0 -0 -1 -1 -1 -1 -0 0 0 0 0 -0 -0 -0 0 nan
nan 1 1 1 1 1 1 1 1 1 1 1 1 1 1 1 1 1 1 1 0 0 -0 -0 -0 -0 -0 -0 -0 -0 -0 -0 0 0 0 0 0 0 0 0 -0 -0 0 0 0 -0 -0 -0 0 0 0 -0 -0 -0 -0 -1 -1 -0 -0 -0 0 0 0 0 -0 -0 0 -0 nan
nan 1 1 1 1 1 1 1 1 1 1 1 1 1 1 1 1 1 0 0 -0 -0 -0 -0 -0 -0 -0 -0 -0 -0 -0 -0 -0 -0 0 0 0 0 0 -0 -0 0 0 0 0 -0 -0 -0 -0 0 -0 -0 -0 -0 -0 -0 -0 0 0 0 0 0 0 0 0 0 0 0 nan
nan 0 0 0 0 0 0 0 0 0 0 0 0 0 0 0 0 0 -0 -0 -0 -0 -0 -0 -0 -0 -0 -0 -0 -0 -0 -0 -0 -0 0 0 0 0 -0 -0 -0 0 0 0 -0 -0 -0 -0 0 0 0 -0 -0 -0 -0 0 0 0 0 0 0 0 0 0 -0 -0 -0 0 nan
nan 0 0 0 0 0 0 0 0 0 -0 -0 -0 -0 -0 -0 -0 -0 -0 -0 -0 -0 -0 -0 -0 -0 -0 -0 -0 -0 -0 -0 -0 -0 0 0 -0 -0 -0 -0 0 0 0 -0 -0 -0 -0 0 0 0 0 0 0 -0 0 0 0 0 0 0 0 0 0 0 0 -0 -0 -0 nan
nan 0 1 0 0 0 0 0 0 0 -0 -0 -0 -0 -0 -0 -0 -0 -0 0 -0 -0 -0 -0 -0 -0 -0 -0 -0 -0 -0 -0 -0 0 0 0 0 0 0 0 0 0 0 0 -0 -0 0 0 0 0 0 0 0 0 0 0 0 0 0 0 0 0 0 0 0 0 0 0 nan
nan 0 0 0 0 0 0 0 0 0 0 0 0 0 0 0 0 0 0 0 0 0 0 0 0 0 0 0 0 0 0 0 0 0 0 0 0 0 0 0 0 0 0 0 0 0 0 0 1 1 1 1 0 0 0 0 0 0 0 0 0 0 0 0 0 0 0 0 nan
nan 0 0 0 0 0 0 0 0 1 1 1 1 1 1 1 1 0 0 0 0 0 0 0 0 0 0 0 0 0 0 0 1 1 1 1 1 1 1 1 1 0 0 0 0 0 0 1 1 1 1 1 0 0 0 0 0 0 0 0 0 0 0 -0 0 0 0 0 nan
nan 1 1 1 1 1 1 1 1 1 1 1 1 1 1 1 1 1 0 0 0 0 0 0 0 -0 -0 0 0 0 1 1 1 1 1 1 1 1 1 1 1 0 0 0 0 1 1 1 1 1 1 1 0 0 0 0 0 0 0 0 0 0 0 0 -0 0 0 0 nan
nan 1 1 1 1 1 1 1 1 1 1 1 1 1 0 0 0 0 0 0 0 0 0 -0 -0 -0 0 0 0 0 1 1 1 1 1 1 1 1 1 1 0 0 1 1 1 1 1 1 1 1 0 0 0 0 0 0 0 0 0 0 0 0 0 0 -0 0 0 0 nan
nan 1 1 1 1 1 1 1 1 1 0 0 0 0 0 0 0 -0 -0 -0 -0 -0 -0 -0 0 0 0 0 0 0 0 0 0 0 1 1 1 1 1 0 0 0 0 0 0 0 0 0 0 0 0 0 0 0 0 0 0 0 0 0 0 0 0 0 0 0 0 0 nan
nan 0 0 0 0 0 0 0 0 0 0 0 0 0 -0 -0 -0 -0 -0 -0 -0 0 0 0 0 0 0 0 0 0 0 0 0 0 0 0 1 1 0 0 0 0 0 0 0 0 0 0 0 0 0 0 0 0 0 0 0 0 0 0 0 0 0 0 0 0 0 0 nan
nan 0 0 0 0 0 0 0 0 0 0 0 0 -0 -0 -0 -0 -0 -0 -0 0 -0 -0 -0 0 0 0 0 0 0 0 0 1 1 1 0 0 0 0 0 0 0 0 0 0 0 0 0 0 0 0 0 0 0 0 0 -0 0 -0 0 0 0 0 0 0 0 0 0 nan
nan 0 0 0 0 0 0 0 0 0 0 0 -0 -0 -0 -0 -0 -0 -0 0 -0 -0 -0 -0 -0 0 0 0 0 0 0 1 1 1 1 0 0 0 0 0 0 0 0 0 0 0 0 0 0 0 0 0 0 0 0 -0 -0 -0 -0 -0 -0 0 0 0 0 0 0 0 nan
nan 0 0 0 0 0 0 0 -0 -0 -0 -0 -0 -0 -0 -0 -0 -0 0 0 -0 -0 -0 -0 0 0 0 0 0 1 1 1 1 1 1 0 0 0 0 0 0 0 0 0 0 0 0 0 0 0 0 0 0 0 0 -0 -0 -0 -0 -0 -0 0 0 0 0 0 -0 0 nan
nan 0 0 0 0 0 -0 -0 -0 -0 -0 -0 -0 -0 -0 -0 -0 -0 0 0 -0 0 0 0 0 0 0 0 1 1 1 1 1 1 1 0 0 0 0 0 1 1 1 1 0 0 0 0 0 0 0 0 0 0 0 0 -0 -0 -0 -0 -0 0 0 0 0 -0 -0 -0 nan
nan 0 0 0 0 0 -0 -0 -0 -0 -0 -0 -0 -0 -0 -0 -0 0 0 0 0 0 0 0 0 0 0 0 1 1 1 1 1 1 1 1 1 1 1 1 1 1 1 1 0 0 0 0 0 0 0 0 0 0 0 0 0 0 -0 -0 -0 -0 0 0 0 0 -0 -0 nan
nan 0 0 0 0 -0 -0 -0 -0 -0 -0 -0 -0 -0 -0 -0 0 0 0 0 0 0 0 0 0 0 0 0 0 1 1 1 1 1 1 1 1 1 1 1 1 1 1 1 1 0 0 0 0 0 0 0 0 0 0 0 0 0 -0 -0 -0 -0 -0 0 0 0 0 -0 nan
nan nan nan nan nan nan nan nan nan nan nan nan nan nan nan nan nan nan nan nan nan nan nan nan nan nan nan nan nan nan nan nan nan nan nan nan nan nan nan nan nan nan nan nan nan nan nan nan nan nan nan nan nan nan nan nan nan nan nan nan nan nan nan nan nan nan nan nan nan
Wind_Speed
51 49 46 45 42 40 36 30 28 28 30 30 29 28 26 24 22 21 22 23 24 24 22 20 19 18 18 19 21 22 23 24 23 23 22 22 23 23 22 20 16 14 14 15 16 15 15 15 15 15 16 16 16 16 16 16 15 15 14 14 14 14 13 13 13 14 14 14 14
47 48 45 41 38 37 36 32 28 28 28 29 28 26 25 25 25 25 27 28 28 27 25 23 20 19 18 19 20 23 25 25 24 23 22 23 25 27 26 21 17 15 15 16 16 15 15 15 15 16 16 16 15 15 15 15 14 14 14 14 14 13 13 14 14 15 15 16 16
36 37 36 32 30 30 30 29 29 29 29 29 28 26 25 25 27 28 30 32 33 32 30 27 24 22 20 19 20 21 23 24 24 23 22 23 26 29 29 24 19 17 17 17 16 16 16 16 16 16 16 15 14 13 13 13 12 13 13 13 13 13 13 14 14 15 15 16 16
27 28 28 28 27 27 26 27 33 34 32 30 26 24 23 25 28 29 31 32 34 34 33 32 29 26 23 21 20 19 20 20 21 23 23 24 26 29 29 26 22 20 18 17 16 16 16 16 16 16 15 14 13 13 13 12 12 12 13 12 12 12 13 13 14 14 14 15 15
24 24 25 25 24 24 23 23 27 31 32 26 21 19 20 24 28 31 31 31 31 32 33 34 34 31 26 23 21 19 19 20 21 23 25 26 27 28 28 26 24 21 19 16 15 15 15 15 15 15 14 14 13 13 13 13 13 14 14 14 14 13 13 13 14 14 14 14 15
24 24 24 23 22 21 21 19 19 22 24 22 19 18 20 24 28 30 32 32 32 33 33 34 35 33 29 25 23 23 24 26 26 25 25 26 27 28 27 26 23 20 16 13 13 13 13 13 13 14 14 14 14 13 13 13 14 15 15 15 15 14 14 14 14 15 15 15 16
25 25 25 25 24 22 20 18 17 19 21 21 20 20 21 23 24 26 27 28 29 31 33 34 34 33 31 29 28 29 31 33 30 26 25 25 27 28 27 25 22 17 13 12 13 13 13 13 14 14 15 15 14 14 14 14 15 15 15 15 14 14 15 15 15 15 16 17 17
23 23 24 24 24 23 21 19 19 21 22 23 23 23 22 20 18 18 19 20 22 24 27 30 32 34 35 35 36 38 39 37 32 27 24 24 26 27 27 25 21 15 12 13 14 14 15 15 16 16 17 16 16 15 16 16 16 15 14 14 14 15 15 16 16 17 17 18 19
17 17 18 20 21 21 21 21 22 23 25 26 27 27 25 21 17 15 14 15 17 19 23 27 30 34 36 38 40 40 38 34 29 25 23 23 25 26 26 24 19 15 13 14 15 16 17 18 19 20 19 18 17 16 16 16 15 14 14 15 15 16 17 17 18 18 19 19 20
15 15 14 14 15 15 16 17 19 21 23 26 29 30 28 25 22 18 16 16 16 18 20 24 27 29 31 31 31 30 28 26 24 23 23 23 25 26 25 22 18 15 15 17 18 19 20 21 21 20 19 17 16 15 15 15 15 15 15 16 17 18 19 19 19 19 20 20 21
15 15 14 13 12 11 10 10 12 15 20 24 28 30 29 27 24 22 20 19 18 18 18 20 21 21 22 22 21 20 20 20 21 22 22 23 24 25 23 20 18 17 17 18 19 20 20 20 19 17 16 15 15 15 16 16 16 17 18 19 19 19 19 20 20 21 21 21 22
15 16 16 15 14 13 12 12 13 16 21 25 27 27 27 25 23 22 21 20 19 18 17 18 19 20 20 20 20 19 19 19 19 19 19 20 22 22 21 20 19 19 19 18 19 19 19 18 17 16 15 15 16 17 18 18 19 20 20 20 19 19 19 20 21 22 22 22 22
16 18 19 19 18 18 18 18 20 22 24 25 25 24 23 22 21 21 20 20 19 19 19 20 21 21 21 22 22 22 22 21 20 19 18 17 18 19 20 21 21 21 21 20 20 20 19 18 18 17 17 17 18 19 20 21 22 21 20 19 18 19 20 21 22 22 22 22 22
19 20 21 21 21 21 21 22 22 23 23 23 22 21 20 19 19 19 19 19 20 20 21 21 21 22 22 22 23 24 24 24 23 22 21 19 19 21 23 24 24 22 22 22 22 22 21 20 18 18 18 19 21 21 21 22 22 21 19 18 18 19 20 21 21 22 21 22 22
21 22 22 22 22 22 21 21 21 21 21 21 20 19 18 17 17 17 18 19 20 21 22 22 22 22 22 23 23 24 24 25 24 24 23 23 23 25 26 26 24 23 22 23 23 22 21 19 18 18 19 20 21 21 21 21 20 19 18 18 18 19 20 21 21 21 21 21 22
23 23 23 22 22 21 21 20 20 20 20 20 19 19 17 17 16 16 17 18 20 21 22 22 22 22 23 23 23 24 25 25 24 23 23 24 26 27 27 25 24 22 21 20 19 18 17 17 17 18 19 20 20 20 20 19 18 18 17 17 18 19 20 20 21 21 21 22 22
23 23 23 22 21 21 19 19 18 19 19 20 20 19 18 17 16 15 15 16 18 20 21 21 22 23 24 24 25 25 25 25 24 24 24 25 27 27 25 23 22 19 17 15 15 16 16 17 18 19 19 19 19 19 18 18 17 17 17 18 19 20 20 20 21 21 22 22 23
22 22 21 21 20 19 18 18 18 18 19 20 20 19 18 17 16 14 14 14 16 18 19 20 22 23 25 25 26 26 26 25 25 25 25 26 25 25 23 21 18 15 14 14 15 16 17 18 19 19 19 18 18 17 17 17 17 17 18 19 20 20 20 21 21 22 22 23 24
21 21 20 19 19 19 18 17 17 18 19 19 19 19 18 17 16 15 14 14 14 16 18 20 21 23 24 25 25 25 24 24 24 24 24 23 23 22 20 18 15 14 15 16 17 18 18 19 19 18 18 17 17 17 17 17 17 18 19 19 20 20 21 21 22 22 23 23 24
20 19 18 18 18 18 18 18 18 18 18 18 18 18 18 18 17 17 16 15 15 16 18 19 20 22 22 23 22 22 22 22 21 21 20 19 19 18 17 16 15 15 17 17 17 18 18 18 18 18 17 17 17 17 17 17 17 18 18 19 20 20 21 22 22 22 23 23 24
19 18 18 18 18 19 19 19 19 19 18 18 18 18 18 18 18 18 17 17 17 18 19 20 19 19 19 19 19 19 19 18 17 17 17 17 17 17 17 17 17 17 17 16 16 17 17 17 18 18 17 17 16 16 16 16 16 17 18 19 20 21 22 22 22 23 23 23 23
19 19 19 19 19 20 20 21 20 19 18 18 17 17 17 17 17 17 17 17 18 19 20 20 18 17 16 16 16 15 15 15 15 15 16 17 18 19 20 19 18 17 16 15 15 16 17 18 18 17 17 16 15 15 15 15 17 18 19 20 21 21 21 22 22 22 22 22 22
18 19 20 20 20 21 21 21 20 19 18 17 17 17 17 16 17 17 17 18 20 21 21 19 17 16 16 15 15 14 14 14 15 16 18 19 20 21 20 19 17 16 15 15 15 17 18 18 17 16 16 15 15 15 15 17 18 19 20 21 21 21 21 21 21 21 21 21 21
18 19 19 19 20 20 20 19 18 18 18 18 18 18 18 18 18 19 19 20 20 20 20 18 17 16 16 16 16 15 15 16 17 18 19 20 20 20 19 18 17 16 15 15 15 16 16 16 16 15 15 15 15 16 17 18 19 20 20 20 20 20 20 20 20 19 19 20 20
19 19 18 17 18 18 18 18 18 18 19 19 19 20 20 20 20 20 20 20 19 18 17 16 16 15 16 16 16 16 16 17 17 18 19 19 18 18 18 17 16 16 15 15 15 15 15 15 15 15 15 16 16 17 18 18 19 19 19 18 18 18 18 18 18 18 18 18 19
20 19 17 17 17 18 18 18 18 19 19 20 20 20 20 19 19 19 18 17 17 16 15 15 15 15 15 15 15 15 15 16 16 17 17 16 16 17 17 17 16 15 14 14 14 14 14 14 14 15 15 16 17 17 17 18 17 17 17 17 16 17 17 17 17 17 18 18 18
19 18 18 18 18 18 18 18 19 19 19 18 18 18 18 18 17 17 16 16 15 15 14 14 14 14 15 15 14 14 14 15 15 16 16 16 16 16 16 16 15 14 14 13 14 14 14 14 14 14 15 16 16 16 16 16 16 16 15 15 15 16 16 16 16 16 17 17 17
18 18 19 18 18 18 18 18 18 18 18 17 17 17 17 17 16 16 16 15 15 14 14 14 15 15 15 15 14 14 14 15 15 16 16 16 16 16 16 15 14 14 14 13 14 14 14 14 14 14 15 15 16 16 15 15 15 15 15 15 15 15 15 15 15 16 16 16 16
18 18 19 18 18 17 17 17 17 17 17 17 17 17 17 16 16 16 15 15 15 15 15 15 15 15 15 15 15 15 16 16 16 16 16 17 16 16 15 15 14 14 14 14 14 14 14 14 14 14 14 15 15 15 15 14 14 14 14 14 14 14 15 15 15 15 15 15 15
19 19 18 18 18 17 17 17 16 16 16 16 16 16 16 16 16 15 15 15 14 14 14 15 15 14 14 15 15 16 16 17 17 17 17 16 16 16 15 14 14 14 14 14 14 14 14 14 14 14 14 14 14 14 14 14 14 14 14 14 14 14 14 14 14 14 14 14 14
20 19 19 19 18 18 17 17 16 16 16 16 15 15 15 15 14 14 14 14 13 14 14 14 14 14 14 15 15 16 16 16 16 16 16 15 15 14 14 14 14 14 14 14 14 14 14 14 14 13 13 13 13 13 13 13 13 13 14 14 14 14 14 14 14 14 13 13 13
18 18 18 18 19 18 18 17 17 16 15 15 14 14 13 13 12 12 12 12 12 12 12 12 13 13 14 14 14 14 14 14 14 14 14 13 13 13 13 13 13 13 13 14 13 13 13 13 13 13 13 13 13 13 13 13 13 13 14 14 14 14 14 14 14 13 13 13 13
16 16 16 17 17 17 17 17 16 15 14 13 13 12 11 11 11 10 10 10 10 11 11 11 12 12 12 12 12 12 11 11 12 12 12 12 12 12 12 12 13 13 13 13 13 13 12 12 12 12 12 12 12 13 13 13 14 14 14 14 14 14 13 13 13 13 13 12 12
15 15 15 15 15 15 15 15 14 14 13 12 11 11 10 10 10 10 10 10 10 10 10 10 11 11 11 11 11 11 11 11 11 12 12 12 12 11 11 12 12 12 12 12 12 12 12 12 12 12 12 12 12 13 13 14 14 14 14 14 13 13 13 13 13 13 12 12 12
15 14 14 14 14 14 14 13 13 13 12 11 11 11 10 10 10 10 10 10 10 10 10 10 10 10 10 10 10 11 11 12 12 12 13 13 12 12 11 12 12 12 12 12 12 12 12 12 12 12 12 12 12 13 13 14 14 14 14 14 13 13 12 12 12 12 12 12 11
14 13 13 13 13 12 12 12 12 12 11 11 10 10 10 10 10 10 10 10 9 9 9 9 10 10 10 11 11 11 12 12 13 13 13 13 12 12 12 12 12 12 12 12 12 12 12 12 12 12 12 12 12 13 14 14 14 14 14 13 13 12 12 11 11 11 11 11 11
12 12 11 11 11 11 11 11 11 11 11 10 10 10 10 10 10 9 9 9 9 9 10 10 10 11 11 11 12 12 12 13 13 13 13 13 13 12 12 12 12 12 12 12 12 12 12 12 12 12 12 12 13 13 14 14 14 14 14 13 12 12 11 11 10 10 11 11 11
11 11 10 10 10 10 10 10 10 10 10 10 10 10 9 9 9 9 9 9 9 10 10 10 11 11 11 12 12 12 12 13 13 14 14 14 13 13 13 13 13 13 13 13 13 13 13 13 13 13 13 13 13 13 14 14 14 14 13 12 12 11 11 10 10 10 10 11 11
10 10 9 9 9 9 9 9 9 9 9 9 9 9 9 9 9 9 9 9 9 10 10 10 11 11 12 12 12 12 13 13 14 14 14 14 14 14 14 14 14 14 13 13 13 13 13 13 13 13 13 13 13 13 14 14 14 13 13 12 12 11 11 10 10 10 10 10 10
9 9 9 9 9 8 8 8 8 9 9 9 9 9 9 9 8 8 8 8 8 9 10 10 11 11 11 12 12 13 13 14 15 15 15 15 15 15 14 14 14 14 14 14 14 14 14 14 13 13 13 13 13 13 13 13 13 12 12 12 12 11 11 10 10 10 9 9 9
9 9 9 9 9 9 8 8 8 8 9 8 8 9 8 8 7 7 6 7 7 8 9 10 10 11 11 11 12 13 14 14 15 15 15 15 15 15 15 15 15 15 15 14 14 14 14 14 13 13 12 12 11 11 12 12 12 11 11 11 11 11 11 10 10 10 9 9 8
Wind_Direction
219 221 223 227 229 231 230 226 220 218 219 220 221 226 231 236 236 230 225 225 232 243 254 261 263 263 261 254 246 241 241 242 241 239 235 230 228 227 223 216 206 207 217 222 222 221 220 219 219 220 221 222 224 225 227 229 233 236 237 238 239 240 243 245 246 247 249 252 257
217 219 220 221 222 222 222 220 217 216 218 221 225 231 235 237 233 225 219 219 226 238 249 256 259 260 258 254 246 240 239 241 241 239 235 231 231 232 229 221 211 209 214 218 217 214 213 214 215 218 221 222 224 225 228 230 232 233 234 235 236 238 240 241 243 245 247 250 254
214 215 215 212 209 208 209 211 213 216 220 225 231 237 241 240 234 226 220 218 223 232 242 251 255 257 257 254 248 242 239 240 240 238 233 230 232 234 233 226 214 208 210 213 212 211 211 214 217 219 221 222 223 226 229 232 233 234 235 236 237 239 240 243 245 248 251 254 257
208 210 211 210 206 201 199 206 214 219 222 225 230 235 238 238 234 229 225 223 226 232 239 246 251 255 256 256 251 246 243 244 242 239 236 234 236 237 234 225 214 207 207 208 208 209 213 217 221 223 222 221 224 229 233 235 237 238 239 240 242 244 246 249 253 256 259 261 263
205 209 212 214 210 202 196 197 204 211 215 216 217 220 224 227 229 228 228 229 231 235 238 242 245 250 254 256 254 254 256 258 253 246 240 239 240 238 232 223 212 205 202 203 208 212 218 223 225 225 223 221 223 230 235 238 240 242 242 243 244 247 250 254 257 260 263 265 267
209 212 217 220 217 208 198 191 186 189 194 198 201 206 213 220 225 227 228 229 232 234 237 239 241 244 250 254 256 260 264 266 262 251 241 238 240 238 232 221 210 201 197 202 211 218 222 225 227 225 223 222 224 228 234 238 242 244 244 244 247 250 254 257 260 262 265 267 268
213 214 217 220 221 215 205 194 188 188 191 197 205 212 218 223 227 228 229 230 231 233 234 236 237 241 245 250 255 259 263 264 260 250 238 233 234 234 229 220 209 202 204 215 219 221 223 224 224 223 222 223 226 230 234 237 240 243 245 248 252 255 259 261 263 264 265 267 269
209 209 210 211 211 209 205 202 203 205 206 209 215 221 226 230 231 232 232 233 234 234 233 234 235 238 242 247 251 255 258 258 253 244 234 230 230 230 226 217 208 208 219 225 224 223 224 223 222 221 220 221 225 230 234 237 240 243 248 254 258 260 261 262 262 263 264 266 267
191 191 193 195 195 196 198 205 211 213 214 215 220 225 231 236 236 237 240 242 241 239 236 235 235 237 240 243 246 248 249 246 241 236 233 230 229 227 222 214 209 214 227 232 230 228 227 225 223 222 221 223 227 232 236 240 244 249 255 259 261 261 260 260 260 262 263 265 265
167 166 169 173 178 183 191 201 207 210 212 215 221 227 233 237 238 238 241 244 244 242 239 236 235 235 235 236 236 236 234 232 231 232 232 230 228 223 218 212 212 219 230 237 236 233 230 226 224 223 223 226 231 237 242 246 250 253 256 258 258 258 258 259 260 261 263 264 264
162 160 160 162 165 169 174 183 192 200 206 212 219 226 231 234 234 234 235 238 239 237 232 226 221 220 220 219 218 219 223 227 230 231 230 227 223 219 216 214 218 223 229 235 237 234 229 224 221 222 225 230 237 242 245 247 249 250 250 251 252 254 256 259 260 261 262 262 263
172 170 168 168 168 167 167 171 183 195 203 209 214 220 224 227 227 227 228 230 230 225 216 205 199 198 200 203 205 210 218 226 228 226 224 222 220 219 218 220 224 227 229 231 234 229 223 219 219 222 228 234 240 243 244 244 245 245 246 248 251 254 257 259 260 261 262 263 264
187 183 180 179 178 178 179 182 189 195 200 203 207 211 215 217 219 220 221 221 219 212 202 193 190 191 194 198 202 207 211 215 215 213 212 216 221 224 224 225 226 227 228 229 228 222 218 218 220 224 230 236 240 242 242 242 243 244 246 250 254 257 259 261 262 263 265 266 267
195 192 189 188 188 189 191 192 194 195 196 197 199 202 204 206 209 212 212 212 210 206 199 193 192 193 196 200 203 206 206 205 203 202 202 206 215 224 228 227 225 224 224 224 220 219 219 222 225 230 235 239 241 243 244 245 245 247 250 253 257 260 262 263 265 266 267 269 270
198 197 195 194 195 196 197 198 198 197 196 196 196 196 196 197 199 202 204 205 206 205 202 197 196 197 199 202 205 206 205 202 199 198 200 205 213 222 227 226 223 220 219 217 216 217 221 227 233 238 241 244 245 246 248 249 251 253 256 258 261 263 265 267 268 269 270 271 272
199 199 198 197 197 198 198 199 199 198 198 199 198 197 196 194 195 196 198 201 204 205 204 201 199 200 201 204 206 207 205 202 200 201 205 211 218 223 225 223 220 218 216 215 216 221 227 235 240 243 245 247 249 251 254 256 257 260 263 266 267 268 269 270 271 272 273 274 274
200 199 198 197 196 196 196 196 197 198 199 199 200 200 199 198 197 197 198 199 201 203 203 203 202 202 203 205 206 206 205 203 203 205 210 216 221 223 222 220 219 218 219 222 227 232 238 242 245 246 248 250 253 257 260 262 263 265 268 270 271 271 271 272 273 274 275 276 277
199 198 197 196 195 194 194 194 194 194 195 196 197 199 200 201 200 199 199 199 199 200 202 203 203 204 205 206 207 207 206 204 205 208 212 216 219 219 219 219 221 224 229 234 238 241 244 246 248 249 251 254 257 260 262 264 264 266 268 270 271 272 274 274 275 276 276 278 278
197 197 197 198 197 197 196 195 193 193 192 193 194 196 199 200 201 201 202 201 200 200 201 203 204 205 206 207 208 208 207 207 208 210 213 216 217 218 220 224 229 234 237 238 240 242 245 248 251 254 256 257 258 260 261 262 263 264 266 268 271 273 275 276 276 277 278 278 279
196 196 198 199 200 200 199 197 195 194 193 193 195 197 199 200 200 201 202 202 200 199 200 203 204 205 206 207 210 211 211 212 212 214 216 219 222 226 231 236 241 241 239 238 240 243 247 251 255 257 258 257 257 258 259 262 264 266 268 271 273 275 276 276 277 277 278 278 278
195 195 197 198 199 199 199 198 197 197 197 198 200 202 202 202 200 199 199 198 196 196 196 198 201 203 206 207 211 214 215 214 215 217 221 227 232 238 243 246 245 242 239 238 239 243 248 252 256 257 257 257 258 260 263 266 269 272 273 275 276 276 277 277 277 278 278 278 278
192 192 193 195 195 196 196 196 196 198 200 202 203 203 201 199 196 194 193 193 193 193 193 194 198 203 208 210 214 216 217 215 216 220 225 231 236 241 244 245 243 239 236 237 238 241 245 251 255 258 259 261 263 266 269 272 274 276 277 277 277 277 277 277 278 278 279 279 280
187 186 187 188 189 190 191 192 193 195 196 198 198 196 193 190 188 187 188 189 191 192 194 197 203 211 218 218 218 218 218 218 220 224 229 233 237 240 241 239 236 232 232 235 236 240 244 250 256 260 263 266 269 272 273 275 276 277 277 278 278 277 277 277 278 279 280 280 281
177 178 179 180 179 180 181 183 184 186 187 187 185 183 182 181 181 183 186 189 192 195 199 203 209 213 215 216 216 216 216 220 225 229 233 235 236 236 234 231 228 228 231 234 237 241 246 251 256 261 265 268 270 271 273 274 275 276 276 276 276 276 277 278 279 280 281 281 282
166 169 172 174 172 170 169 169 172 174 175 175 175 175 176 177 178 181 185 189 192 196 201 205 208 209 209 210 211 212 216 221 227 231 234 235 235 233 230 227 228 230 234 237 241 244 248 252 256 260 263 265 267 268 269 270 271 272 273 274 274 276 277 279 280 281 282 283 283
158 161 164 165 161 160 160 161 164 167 168 170 171 172 174 176 178 182 186 189 193 196 200 203 206 208 209 211 213 215 218 222 226 230 231 230 229 227 227 229 232 236 239 242 244 247 250 253 256 258 261 262 264 265 266 267 268 269 270 272 274 276 278 280 282 283 284 284 284
158 159 158 157 155 155 157 160 164 167 169 171 173 175 177 180 183 186 189 192 195 197 200 203 206 208 211 213 215 217 219 222 224 225 225 224 223 224 227 231 235 238 240 243 246 248 251 253 256 258 259 261 262 264 265 266 267 269 271 272 275 277 279 280 282 284 285 286 286
160 160 159 157 158 159 162 166 169 172 175 178 180 183 186 188 190 191 193 195 197 200 202 205 207 209 210 211 212 213 215 218 219 220 221 221 222 223 226 229 232 235 238 241 245 248 251 253 255 256 258 260 261 262 264 265 267 269 272 274 276 278 280 281 282 284 284 286 287
161 160 160 160 163 166 169 172 175 178 181 184 187 189 191 192 193 194 195 196 198 200 202 205 207 208 208 208 209 211 212 214 216 217 219 220 221 222 224 226 228 231 235 239 243 246 249 252 253 255 256 257 259 261 262 264 267 270 273 275 277 279 280 282 283 284 285 286 287
165 164 165 166 168 171 175 178 181 183 186 187 189 191 192 193 193 194 195 196 197 200 203 205 207 207 207 208 210 211 212 212 213 214 215 217 219 220 222 224 227 230 235 239 243 246 249 252 253 254 254 254 256 258 261 264 267 270 273 276 278 280 282 283 284 285 286 287 289
167 168 169 171 172 175 177 180 182 183 185 186 187 188 189 191 192 193 194 196 198 201 203 205 206 207 207 208 210 211 212 212 212 213 214 216 218 220 223 226 229 233 238 242 245 248 250 253 254 255 255 255 256 258 261 264 267 270 273 275 278 281 282 284 285 286 286 287 289
167 168 170 171 171 173 174 176 177 179 180 181 183 184 187 189 191 193 195 197 200 202 204 205 206 207 207 209 210 212 213 214 216 217 219 221 223 225 228 231 234 238 241 245 248 250 252 254 256 256 257 258 259 260 262 265 267 270 273 275 278 280 282 284 285 285 285 286 287
166 167 168 168 168 169 170 171 172 174 176 178 180 182 185 189 192 195 197 199 201 203 204 205 207 209 211 213 216 219 221 223 226 229 231 232 233 234 235 237 240 242 245 248 251 252 254 256 257 258 260 261 262 263 265 267 269 271 273 275 277 279 281 283 284 284 283 283 285
163 164 165 166 167 167 167 168 170 171 174 176 179 182 186 190 193 196 199 201 203 205 207 209 212 215 219 222 226 229 232 234 236 238 239 240 241 241 242 243 245 247 249 252 253 255 256 257 258 259 261 263 264 265 267 268 270 272 274 275 277 278 280 281 282 282 281 282 283
162 163 164 165 166 166 167 168 170 172 174 178 181 185 189 192 195 198 201 205 208 212 215 219 223 227 230 233 236 237 238 239 240 242 243 244 245 246 246 248 249 250 252 253 254 255 256 257 259 260 261 263 264 266 267 269 270 272 274 275 276 277 279 281 282 282 281 283 284
162 163 164 165 166 167 168 170 172 175 178 181 185 190 194 197 200 204 208 213 217 222 227 231 235 237 239 241 242 242 241 240 240 242 244 246 247 248 248 249 250 251 252 253 253 254 255 257 259 260 262 263 264 266 267 268 269 271 273 274 275 277 278 281 282 283 283 285 286
163 164 166 167 168 169 171 174 177 180 183 187 191 195 199 203 207 211 216 221 225 229 233 236 238 240 240 241 241 240 239 239 239 240 242 245 247 247 247 248 249 249 250 251 251 253 254 257 259 261 263 263 265 265 266 266 267 269 271 272 273 275 278 280 282 283 285 288 289
165 166 168 169 171 173 176 179 183 187 190 193 196 200 203 206 210 214 219 224 227 229 232 234 235 236 237 236 236 235 234 234 235 237 239 242 243 244 244 245 246 247 247 248 249 251 253 256 258 261 262 263 263 263 263 263 265 266 268 270 271 273 276 278 280 282 286 290 292
169 170 172 173 175 179 183 187 191 194 198 200 201 203 205 206 209 212 217 222 226 228 230 231 231 231 232 231 230 229 229 229 231 233 235 237 240 241 242 242 243 244 245 246 247 249 252 255 258 260 261 261 260 258 258 260 263 265 267 268 269 271 273 275 277 280 285 291 294
176 178 179 181 183 187 190 194 198 201 202 204 206 207 206 206 207 210 215 220 225 228 229 230 230 230 229 229 228 227 227 228 229 230 232 235 237 239 240 240 241 242 243 244 245 248 251 255 258 260 260 258 255 253 254 256 261 264 266 266 267 269 271 273 274 276 281 288 291
186 188 190 191 193 195 197 200 203 206 207 209 210 211 210 209 208 210 214 219 224 227 229 230 231 231 231 230 229 229 228 229 229 231 232 234 236 238 239 239 239 240 241 243 245 248 252 257 260 259 256 251 248 248 250 254 258 261 262 264 265 267 270 272 272 273 275 279 282
Height
1474 1476 1477 1479 1480 1481 1481 1482 1482 1483 1484 1485 1486 1487 1488 1490 1492 1494 1495 1496 1498 1499 1500 1500 1501 1502 1504 1506 1507 1509 1510 1511 1512 1513 1513 1514 1515 1516 1516 1516 1515 1515 1516 1517 1518 1519 1520 1521 1522 1524 1525 1526 1527 1528 1529 1530 1531 1531 1532 1532 1532 1533 1533 1533 1534 1534 1534 1535 1535
1473 1474 1476 1477 1479 1480 1481 1481 1481 1482 1482 1483 1484 1486 1487 1489 1491 1493 1495 1496 1497 1498 1499 1499 1500 1501 1502 1504 1506 1508 1510 1511 1512 1513 1514 1515 1516 1516 1516 1516 1515 1515 1516 1516 1516 1517 1519 1520 1521 1523 1524 1525 1526 1527 1528 1529 1529 1530 1531 1531 1531 1531 1532 1532 1532 1533 1533 1533 1534
1471 1472 1474 1476 1477 1478 1479 1479 1479 1480 1480 1481 1483 1485 1487 1489 1491 1492 1494 1495 1496 1497 1498 1498 1499 1500 1501 1503 1505 1507 1508 1510 1511 1512 1513 1514 1514 1515 1515 1515 1515 1515 1515 1515 1515 1516 1517 1519 1520 1521 1523 1524 1525 1526 1526 1527 1528 1529 1529 1529 1530 1530 1531 1531 1531 1531 1532 1532 1532
1470 1471 1473 1474 1475 1476 1476 1476 1476 1477 1479 1481 1483 1485 1487 1489 1490 1492 1493 1494 1495 1496 1497 1497 1498 1499 1500 1502 1504 1506 1507 1509 1510 1511 1512 1513 1513 1514 1515 1514 1514 1514 1513 1514 1514 1515 1516 1518 1519 1520 1521 1523 1524 1525 1526 1526 1527 1527 1528 1528 1529 1529 1529 1530 1530 1530 1531 1531 1531
1470 1471 1471 1472 1473 1475 1475 1474 1474 1475 1478 1481 1484 1486 1487 1489 1490 1491 1492 1494 1495 1496 1497 1497 1497 1498 1500 1501 1503 1505 1506 1507 1509 1511 1511 1512 1513 1514 1514 1514 1513 1513 1512 1512 1513 1514 1516 1517 1518 1519 1521 1522 1523 1524 1525 1526 1526 1526 1527 1527 1527 1528 1528 1528 1529 1529 1529 1529 1529
1469 1470 1471 1471 1472 1473 1474 1473 1473 1475 1477 1481 1484 1486 1487 1489 1490 1491 1491 1492 1493 1494 1496 1496 1497 1498 1500 1501 1503 1504 1505 1506 1509 1511 1511 1511 1512 1514 1515 1515 1513 1512 1511 1511 1512 1513 1515 1516 1517 1518 1520 1521 1522 1523 1524 1524 1525 1525 1526 1526 1526 1526 1527 1527 1527 1527 1527 1528 1528
1468 1469 1470 1471 1471 1472 1473 1474 1474 1475 1477 1480 1483 1485 1486 1488 1489 1490 1491 1491 1492 1493 1495 1496 1497 1499 1500 1501 1502 1503 1504 1506 1509 1510 1510 1510 1511 1513 1515 1514 1513 1512 1512 1512 1512 1513 1514 1515 1516 1517 1519 1520 1521 1522 1522 1523 1524 1524 1524 1525 1525 1525 1525 1525 1526 1526 1526 1526 1526
1467 1468 1469 1470 1471 1472 1473 1474 1474 1475 1476 1479 1482 1484 1486 1488 1489 1489 1490 1491 1492 1493 1494 1495 1497 1498 1500 1501 1502 1503 1505 1506 1508 1509 1509 1509 1511 1513 1514 1514 1512 1511 1511 1512 1512 1512 1513 1514 1516 1516 1518 1519 1520 1521 1521 1522 1522 1523 1523 1523 1523 1523 1524 1524 1524 1524 1524 1525 1525
1466 1467 1468 1470 1471 1472 1473 1474 1474 1476 1477 1479 1482 1484 1485 1486 1487 1488 1489 1490 1491 1492 1493 1494 1496 1497 1498 1500 1501 1503 1504 1506 1507 1507 1508 1508 1510 1512 1513 1513 1512 1511 1511 1511 1511 1511 1512 1513 1515 1516 1517 1517 1518 1519 1520 1521 1521 1521 1521 1521 1522 1522 1522 1522 1522 1523 1523 1523 1524
1466 1467 1469 1470 1471 1472 1473 1474 1475 1476 1478 1480 1481 1483 1484 1484 1485 1486 1487 1489 1490 1491 1491 1493 1494 1495 1496 1498 1500 1501 1503 1504 1505 1506 1506 1508 1510 1511 1512 1511 1511 1510 1510 1510 1510 1510 1511 1512 1513 1514 1515 1516 1517 1518 1519 1519 1519 1520 1520 1520 1521 1521 1521 1521 1521 1521 1521 1522 1522
1466 1467 1469 1470 1471 1472 1473 1474 1475 1476 1478 1479 1481 1481 1482 1483 1484 1485 1486 1487 1488 1489 1490 1491 1492 1494 1495 1497 1498 1500 1501 1502 1503 1504 1505 1507 1508 1510 1510 1510 1510 1509 1508 1508 1508 1509 1510 1511 1512 1513 1514 1515 1516 1517 1517 1518 1518 1518 1518 1519 1519 1519 1519 1519 1520 1520 1520 1521 1521
1466 1467 1468 1469 1471 1472 1473 1475 1476 1477 1477 1478 1479 1480 1481 1482 1483 1484 1485 1486 1487 1488 1489 1490 1491 1492 1494 1495 1496 1498 1500 1501 1502 1503 1504 1506 1506 1507 1508 1508 1509 1508 1507 1507 1507 1508 1509 1511 1512 1513 1514 1514 1515 1516 1516 1516 1516 1516 1516 1517 1517 1517 1517 1518 1518 1518 1519 1519 1519
1465 1466 1467 1468 1470 1471 1472 1473 1475 1476 1476 1477 1478 1479 1480 1481 1481 1482 1483 1485 1486 1487 1488 1489 1490 1491 1492 1493 1495 1496 1497 1499 1500 1501 1502 1504 1505 1506 1506 1507 1507 1506 1506 1506 1506 1507 1509 1510 1511 1512 1512 1513 1514 1514 1514 1514 1515 1515 1515 1515 1515 1516 1516 1516 1517 1517 1517 1517 1518
1464 1465 1466 1467 1469 1470 1471 1472 1473 1474 1475 1476 1477 1478 1479 1479 1480 1481 1482 1484 1485 1486 1488 1488 1489 1490 1491 1492 1493 1495 1496 1496 1497 1499 1500 1501 1503 1504 1505 1505 1505 1505 1505 1505 1506 1507 1509 1509 1510 1511 1511 1512 1512 1513 1513 1513 1513 1513 1513 1513 1514 1514 1515 1515 1515 1516 1516 1516 1516
1463 1464 1465 1466 1468 1469 1470 1471 1472 1473 1474 1475 1476 1477 1477 1478 1479 1480 1481 1483 1484 1486 1487 1488 1489 1490 1491 1491 1493 1494 1494 1495 1495 1496 1497 1499 1501 1502 1502 1502 1502 1503 1503 1504 1506 1507 1508 1509 1509 1510 1511 1511 1511 1511 1511 1511 1511 1511 1512 1512 1512 1512 1513 1513 1514 1514 1514 1515 1515
1463 1464 1465 1466 1467 1468 1469 1470 1471 1472 1473 1474 1475 1476 1477 1478 1479 1480 1481 1482 1484 1485 1486 1487 1488 1489 1490 1491 1492 1493 1494 1494 1495 1496 1497 1498 1499 1500 1501 1501 1501 1502 1503 1503 1504 1506 1506 1507 1508 1509 1509 1510 1510 1510 1510 1510 1510 1511 1511 1511 1511 1511 1511 1512 1512 1512 1513 1513 1513
1462 1463 1464 1465 1466 1467 1468 1469 1470 1471 1472 1473 1474 1475 1476 1477 1478 1479 1480 1481 1483 1484 1485 1486 1487 1488 1489 1490 1491 1492 1493 1493 1494 1495 1496 1497 1498 1499 1499 1500 1500 1501 1501 1502 1503 1504 1505 1506 1507 1507 1508 1508 1508 1508 1509 1509 1509 1510 1510 1510 1510 1510 1510 1510 1511 1511 1511 1511 1511
1461 1462 1463 1465 1466 1466 1468 1469 1470 1471 1471 1472 1473 1475 1476 1476 1477 1478 1480 1481 1482 1483 1484 1485 1486 1487 1488 1489 1490 1491 1491 1492 1493 1494 1496 1496 1497 1497 1498 1499 1499 1500 1501 1501 1503 1504 1504 1505 1506 1506 1506 1506 1507 1507 1507 1507 1508 1508 1508 1508 1509 1509 1509 1509 1509 1509 1509 1509 1509
1461 1462 1463 1464 1465 1466 1467 1468 1469 1470 1471 1472 1473 1474 1475 1476 1476 1477 1479 1480 1481 1482 1483 1484 1485 1486 1487 1488 1489 1489 1490 1491 1492 1493 1494 1495 1496 1496 1497 1498 1498 1499 1500 1501 1502 1503 1503 1504 1504 1504 1505 1505 1505 1506 1506 1506 1506 1506 1506 1507 1507 1507 1507 1507 1507 1507 1507 1507 1507
1460 1461 1462 1464 1465 1465 1466 1467 1468 1469 1470 1471 1472 1473 1474 1475 1476 1476 1477 1479 1480 1481 1482 1483 1484 1485 1486 1486 1488 1489 1490 1491 1491 1492 1493 1494 1495 1496 1496 1497 1497 1498 1499 1500 1501 1501 1502 1502 1503 1503 1503 1504 1504 1504 1505 1505 1505 1505 1505 1505 1505 1506 1506 1506 1506 1506 1506 1506 1506
1459 1460 1461 1462 1464 1465 1466 1466 1467 1468 1469 1470 1471 1472 1473 1474 1475 1476 1476 1478 1479 1481 1481 1482 1483 1484 1485 1486 1487 1488 1489 1490 1491 1492 1492 1493 1494 1495 1495 1496 1497 1498 1498 1499 1499 1500 1501 1501 1501 1502 1502 1502 1502 1503 1503 1503 1503 1503 1503 1504 1504 1504 1504 1504 1504 1504 1504 1504 1504
1458 1459 1460 1461 1462 1463 1464 1465 1466 1467 1468 1470 1471 1472 1473 1474 1474 1475 1476 1477 1479 1480 1481 1482 1483 1484 1485 1486 1486 1488 1489 1490 1491 1491 1492 1493 1494 1494 1495 1496 1496 1497 1497 1498 1498 1499 1499 1500 1500 1500 1501 1501 1501 1501 1501 1501 1501 1502 1502 1502 1502 1502 1502 1502 1502 1502 1502 1502 1502
1458 1459 1459 1460 1461 1462 1463 1464 1465 1466 1468 1469 1470 1471 1472 1473 1474 1475 1476 1477 1479 1480 1481 1481 1482 1483 1485 1485 1486 1487 1488 1489 1490 1491 1492 1492 1493 1494 1494 1495 1496 1496 1496 1497 1497 1498 1498 1499 1499 1499 1499 1499 1499 1499 1499 1500 1500 1501 1501 1501 1501 1501 1501 1501 1501 1501 1500 1500 1500
1458 1458 1459 1460 1460 1461 1462 1464 1465 1466 1467 1469 1470 1471 1472 1473 1474 1475 1476 1477 1478 1480 1481 1481 1482 1483 1484 1485 1486 1486 1487 1488 1489 1490 1491 1491 1492 1493 1494 1494 1495 1495 1495 1496 1496 1496 1496 1497 1497 1497 1497 1497 1497 1498 1498 1499 1499 1499 1500 1500 1500 1500 1499 1499 1499 1499 1499 1498 1498
1458 1459 1460 1460 1461 1461 1462 1464 1465 1466 1467 1469 1470 1471 1471 1472 1474 1475 1476 1477 1478 1479 1480 1481 1482 1482 1483 1484 1485 1486 1486 1487 1488 1489 1490 1490 1491 1492 1492 1493 1493 1494 1494 1494 1494 1495 1495 1495 1496 1496 1496 1496 1497 1497 1498 1498 1498 1498 1499 1498 1498 1498 1498 1497 1497 1497 1497 1497 1496
1458 1459 1460 1461 1462 1462 1463 1464 1466 1466 1468 1469 1470 1471 1471 1472 1473 1475 1476 1477 1478 1479 1480 1481 1481 1482 1483 1484 1484 1485 1486 1486 1487 1488 1489 1489 1490 1491 1491 1491 1492 1492 1492 1492 1493 1493 1493 1494 1495 1495 1495 1495 1496 1496 1497 1497 1497 1497 1497 1497 1497 1496 1496 1496 1496 1496 1495 1495 1495
1459 1460 1461 1462 1462 1463 1464 1465 1466 1467 1468 1469 1470 1471 1471 1472 1473 1474 1475 1476 1477 1478 1479 1480 1481 1481 1482 1483 1483 1484 1485 1486 1486 1487 1488 1489 1489 1490 1490 1490 1491 1491 1491 1491 1492 1492 1493 1493 1494 1494 1494 1495 1495 1495 1496 1496 1496 1496 1496 1496 1495 1495 1495 1495 1494 1494 1494 1493 1493
1460 1461 1462 1463 1464 1464 1465 1466 1466 1467 1468 1469 1470 1471 1471 1472 1473 1474 1474 1475 1476 1477 1478 1479 1480 1480 1481 1482 1482 1483 1484 1485 1486 1486 1487 1488 1488 1489 1489 1489 1490 1490 1490 1491 1491 1491 1492 1492 1493 1493 1493 1494 1494 1494 1494 1494 1494 1494 1494 1494 1494 1494 1494 1493 1493 1493 1492 1492 1492
1460 1461 1462 1463 1464 1465 1466 1466 1467 1467 1468 1469 1470 1470 1471 1471 1472 1473 1474 1474 1475 1476 1477 1478 1479 1479 1480 1481 1482 1483 1483 1484 1485 1486 1486 1487 1487 1488 1488 1488 1489 1489 1489 1490 1490 1491 1491 1492 1492 1492 1493 1493 1493 1493 1493 1493 1493 1493 1493 1493 1492 1492 1492 1492 1492 1491 1491 1491 1491
1461 1461 1462 1463 1464 1465 1466 1466 1467 1467 1468 1469 1469 1470 1471 1471 1472 1472 1473 1474 1475 1475 1476 1477 1478 1479 1480 1481 1482 1482 1483 1484 1485 1486 1486 1486 1486 1487 1487 1487 1487 1488 1488 1489 1489 1490 1490 1491 1491 1491 1491 1491 1491 1491 1491 1491 1491 1491 1491 1491 1491 1491 1491 1491 1490 1490 1490 1489 1489
1460 1461 1462 1463 1464 1464 1465 1466 1467 1467 1468 1469 1469 1470 1471 1471 1471 1472 1472 1473 1474 1475 1476 1477 1478 1479 1480 1481 1482 1483 1483 1484 1485 1485 1485 1485 1486 1486 1486 1486 1486 1487 1487 1488 1488 1489 1489 1490 1490 1490 1490 1490 1490 1490 1490 1490 1490 1490 1490 1490 1490 1490 1489 1489 1489 1489 1488 1488 1488
1460 1461 1461 1462 1463 1464 1465 1466 1466 1467 1468 1469 1469 1470 1470 1471 1471 1471 1472 1473 1474 1475 1476 1477 1478 1479 1480 1481 1482 1482 1483 1483 1484 1484 1484 1484 1485 1485 1485 1486 1486 1486 1486 1487 1487 1488 1488 1488 1488 1489 1489 1489 1489 1489 1489 1489 1489 1489 1489 1489 1489 1488 1488 1488 1488 1487 1487 1487 1487
1461 1461 1462 1463 1463 1464 1465 1466 1466 1467 1468 1469 1469 1470 1470 1471 1471 1472 1472 1473 1474 1475 1476 1477 1478 1479 1479 1480 1481 1481 1482 1482 1482 1482 1483 1483 1484 1484 1484 1485 1485 1485 1486 1486 1486 1486 1486 1487 1487 1487 1487 1487 1487 1487 1487 1487 1487 1487 1487 1487 1487 1487 1487 1487 1487 1486 1486 1486 1486
1461 1462 1463 1463 1464 1465 1466 1466 1467 1468 1468 1469 1470 1470 1471 1471 1472 1472 1473 1474 1474 1475 1476 1476 1477 1478 1478 1479 1479 1480 1480 1481 1481 1481 1482 1482 1483 1483 1483 1484 1484 1484 1485 1485 1485 1485 1486 1486 1486 1486 1486 1486 1486 1486 1486 1486 1486 1486 1486 1486 1486 1486 1486 1486 1486 1486 1485 1485 1485
1462 1462 1463 1464 1465 1466 1466 1467 1467 1468 1469 1469 1470 1471 1471 1471 1472 1472 1473 1474 1474 1475 1475 1476 1476 1476 1477 1477 1478 1478 1479 1480 1480 1480 1481 1481 1481 1482 1482 1483 1483 1483 1483 1484 1484 1484 1484 1485 1485 1485 1485 1485 1485 1485 1485 1485 1485 1485 1485 1485 1485 1485 1485 1485 1485 1484 1484 1484 1483
1462 1463 1464 1465 1465 1466 1467 1467 1468 1469 1469 1470 1470 1471 1471 1472 1472 1472 1473 1473 1474 1474 1475 1475 1475 1476 1476 1476 1477 1478 1478 1479 1479 1480 1480 1480 1481 1481 1481 1481 1482 1482 1482 1482 1483 1483 1483 1483 1484 1484 1484 1484 1484 1484 1484 1484 1484 1484 1484 1484 1484 1484 1484 1484 1483 1483 1483 1483 1482
1463 1464 1465 1465 1466 1467 1467 1468 1469 1469 1470 1470 1471 1471 1471 1472 1472 1472 1473 1473 1473 1474 1474 1474 1475 1475 1476 1476 1476 1477 1477 1478 1478 1479 1479 1479 1480 1480 1480 1481 1481 1481 1481 1481 1481 1482 1482 1482 1482 1483 1483 1483 1483 1483 1483 1483 1483 1483 1483 1483 1483 1482 1482 1482 1482 1482 1482 1481 1481
1463 1464 1465 1466 1466 1467 1468 1468 1469 1470 1470 1471 1471 1471 1471 1472 1472 1472 1472 1473 1473 1473 1474 1474 1474 1475 1475 1476 1476 1476 1477 1477 1478 1478 1478 1479 1479 1479 1480 1480 1480 1480 1480 1480 1481 1481 1481 1481 1481 1482 1482 1482 1482 1482 1482 1482 1482 1481 1481 1481 1481 1481 1481 1481 1481 1481 1481 1480 1480
1464 1465 1466 1466 1467 1467 1468 1469 1469 1470 1470 1471 1471 1471 1471 1471 1472 1472 1472 1472 1473 1473 1473 1474 1474 1474 1475 1475 1476 1476 1476 1477 1477 1477 1478 1478 1478 1479 1479 1479 1479 1479 1479 1479 1480 1480 1480 1480 1481 1481 1481 1481 1481 1481 1481 1481 1481 1481 1481 1480 1480 1480 1480 1480 1480 1480 1480 1479 1479
1464 1465 1466 1466 1467 1467 1468 1468 1469 1469 1470 1470 1470 1471 1471 1471 1471 1471 1472 1472 1472 1472 1473 1473 1473 1473 1474 1474 1475 1475 1476 1476 1476 1477 1477 1477 1478 1478 1478 1478 1478 1478 1478 1478 1479 1479 1479 1479 1480 1480 1480 1480 1480 1480 1480 1480 1480 1479 1479 1479 1479 1479 1479 1479 1479 1479 1479 1478 1478
1464 1465 1465 1466 1466 1467 1467 1468 1468 1469 1469 1469 1470 1470 1470 1470 1471 1471 1471 1471 1472 1472 1472 1472 1472 1472 1473 1473 1473 1474 1474 1475 1475 1476 1476 1476 1476 1477 1477 1477 1477 1477 1477 1477 1478 1478 1478 1478 1478 1479 1479 1479 1479 1479 1479 1479 1479 1479 1478 1478 1478 1478 1478 1478 1478 1478 1477 1477 1477